Aeroporto :
LOGIN :

Iscrizione | Disclaimer

   EN    FR    IT 

 










Sommario :    VFR   VFR Marginale   IFR   IFR Intensivo   IFR Molto Intensivo
Visibilità : 
Base nubi : 
>= 8 km
>= 3000ft
5 / 8 km
1000 / 3000 ft
1500m / 5 km
500 / 1000 ft
800 / 1500m
200 / 500 ft
< 800m
< 200 ft
Simboli :   Temporali  Nebbia  Neve Forte  Precipitazioni Forti  Vento > 20 kt
SIGMETs :   Varie  Temporali  Ghiacco  Turbolenza  Onda orograficha  Ceneri Vulcaniche






- Altitudine del aeroporto : 226 ft
- Codice IATA : BEX


EGUB - RAF Benson

ULTIMO METAR :
  • 022326Z 27004KT 9999 SCT045 07/05 Q1015 NOSIG RMK BLU BLU

METARs OBSOLETI :
  • 022250Z 29003KT CAVOK 07/04 Q1015 NOSIG RMK BLU BLU
  • 022220Z 28003KT 9999 SCT040 07/05 Q1015 NOSIG RMK BLU BLU
  • 022150Z 29003KT 9999 SCT032 07/04 Q1015 NOSIG RMK BLU BLU
  • 022120Z 29003KT 9999 FEW028 SCT034 08/04 Q1015 NOSIG RMK BLU BLU

TAF TAF EGUB
Valido dal 02 a 21 ore il 03 a 01 ore UTC


021939Z 0221/0301 27006KT 9999 SCT035
PROB30
TEMPO 0221/0301 SCT024
ATIS : +44 1491-837766 (x7524)



MetMap, La meteo Aeronautica in un colpo d'occhio ! - Copyright ORBIFLY Dicembre 2007 - Disclaimer

ORBIFLY MET'MAP TEAM :

Programmazione e sviluppo : Alexandra Zaïnal
Concezione : Baudouin d'Aumeries
Aiuto per la programmazione : Marc-Olivier Méhu
Supporto tecnico e logistico : Manuel Goepfert
Aiuto per la traduzione : Arnaldo La Scala

Contatto : metmap@orbifly.com




FONTI E CREDITI :

   NOAA